Flag Weather past 2 weeks in Ushuaia, Tierra del Fuego, Argentina

Now
41 °F

Passing clouds.


Feels Like: 35 °F
Forecast: 37 / 49 °F
Wind: 10 mph from Southwest

Location: Ushuaia Aerodrome

Current Time: Nov 28, 2014 at 11:28:56 PM

Latest Report: Nov 28, 2014 at 11:00 PM


Visibility: N/A

Pressure: 29.50 "Hg

Humidity: 66%

Dew point: 30 °F

Location of UshuaiaLocation

Historic Weather in Ushuaia — Graph

°F

Ushuaia temperature yesterday

Maximum temperature yesterday: 57 °F (at 7:00 PM)
Minimum temperature yesterday: 45 °F (at 12:00 AM)
Average temperature yesterday: 50 °F

Past Weeks' High & Low Weather Summary

 TemperatureHumidityPressure
High59 °F (Nov 16, 5:00 PM)93% (Nov 13, 11:00 PM)29.71 "Hg (Nov 13, 11:00 PM)
Low34 °F (Nov 15, 2:00 AM)31% (Nov 16, 4:00 PM)28.71 "Hg (Nov 17, 5:00 PM)
Average44 °F67%29.30 "Hg
* Reported Nov 13 10:00 PM — Nov 28 10:00 PM, Ushuaia, Weather by CustomWeather, © 2014

Note: Actual official high and low records may vary slightly from our data, if they occured in-between our weather recording intervals... More about our weather records

Advertising

Ushuaia weather history for previous 24 hours

 ConditionsComfort  
Time TempWeatherWind HumidityBarometerVisibility
10:00 PM
Nov 28
43 °FPassing clouds.8 mph61%29.50 "HgN/A
9:00 PM46 °FPassing clouds.6 mph57%29.50 "HgN/A
8:00 PM46 °FScattered clouds.17 mph62%29.47 "HgN/A
7:00 PM45 °FScattered showers. Scattered clouds.21 mph71%29.45 "HgN/A
6:00 PM45 °FScattered showers. Partly sunny.21 mph66%29.45 "HgN/A
5:00 PM45 °FLight rain. Mostly cloudy.29 mph71%29.42 "HgN/A
4:00 PM46 °FScattered showers. Partly sunny.29 mph57%29.42 "HgN/A
3:00 PM48 °FScattered showers. Partly sunny.25 mph58%29.39 "HgN/A
2:00 PM48 °FScattered showers. Partly sunny.21 mph54%29.39 "HgN/A
1:00 PM48 °FBroken clouds.14 mph54%29.42 "HgN/A
12:00 PM46 °FBroken clouds.17 mph53%29.42 "HgN/A
11:00 AM48 °FScattered clouds.16 mph54%29.42 "HgN/A
10:00 AM46 °FScattered clouds.18 mph62%29.42 "HgN/A
9:00 AM45 °FScattered showers. Scattered clouds.9 mph76%29.36 "HgN/A
8:00 AM45 °FScattered showers. Partly sunny.22 mph71%29.39 "HgN/A
7:00 AM45 °FScattered showers. Broken clouds.22 mph76%29.36 "HgN/A
6:00 AM45 °FRain. Partly sunny.25 mph87%29.36 "HgN/A
12:00 AM52 °FPartly cloudy.12 mph62%29.27 "HgN/A
11:00 PM
Nov 27
54 °FPartly cloudy.12 mph58%29.27 "HgN/A
Weather by CustomWeather, © 2014

See weather overviewHow to use our weather pages